Hill City, KS

2:35 PM CDT on July 26, 2017 (GMT -0500)
Hill City Municipal

Weather History for KHLC - August, 2013

Change the Weather History Date:

Friday, August 23, 2013

  Actual Average Record
Temperature  
Mean Temperature 83 °F 76 °F  
Max Temperature 95 °F 89 °F 109 °F (1943)
Min Temperature 71 °F 62 °F 44 °F (1911)
Cooling Degree Days 17    
Growing Degree Days 32 (Base 50)    
Moisture  
Dew Point 63 °F    
Average Humidity 58    
Maximum Humidity 93    
Minimum Humidity 28    
Precipitation  
Precipitation 0.02 in 0.09 in 2.20 in (2005)
Month to date precipitation 0.73 2.14  
Year to date precipitation 12.91 17.11  
Sea Level Pressure  
Sea Level Pressure 29.91 in    
Wind  
Wind Speed 8 mph (SSE)    
Max Wind Speed 18 mph    
Max Gust Speed 26 mph    
Visibility 10 miles    
Events Rain    
T = Trace of Precipitation, MM = Missing Value Source: NWS Daily Summary

Daily Weather History Graph

Daily Weather History Graph

Search for Another Location

Airport or City:

Trip Planner

Search our weather history database for the weather conditions in past years. The results will help you decide how hot, cold, wet, or windy it might be!

Date:

Astronomy

Aug. 23, 2013 Rise Set
Actual Time 6:59 AM CDT 8:23 PM CDT
Civil Twilight 6:31 AM CDT 8:51 PM CDT
Nautical Twilight 5:57 AM CDT 9:24 PM CDT
Astronomical Twilight 5:22 AM CDT 10:00 PM CDT
Moon 9:44 PM CDT (8/23) 9:55 AM CDT (8/23)
Length of Visible Light 14h 19m
Length of Day
13h 23m
Waning Gibbous, 91% of the Moon is Illuminated
Aug 23
Waning Gibbous
Aug 28
Last Quarter
Sep 5
New
Sep 12
First Quarter
Sep 19
Full

Hourly Weather History & Observations

Time (CDT) Temp. Heat Index Dew Point Humidity Pressure Visibility Wind Dir Wind Speed Gust Speed Precip Events Conditions
12:53 AM 75.0 °F - 61.0 °F 62% 29.96 in 10.0 mi SE 5.8 mph - N/A   Clear
1:53 AM 75.0 °F - 62.1 °F 64% 29.97 in 10.0 mi SE 5.8 mph - N/A   Overcast
2:53 AM 75.9 °F - 64.0 °F 67% 29.96 in 10.0 mi SSE 8.1 mph - N/A   Mostly Cloudy
3:53 AM 75.0 °F - 66.0 °F 73% 29.94 in 10.0 mi SSE 9.2 mph - N/A   Mostly Cloudy
4:53 AM 75.0 °F - 66.9 °F 76% 29.96 in 10.0 mi South 5.8 mph - N/A   Overcast
5:53 AM 75.0 °F - 66.9 °F 76% 29.94 in 10.0 mi SSE 8.1 mph - N/A   Overcast
6:53 AM 73.0 °F - 68.0 °F 84% 29.96 in 10.0 mi South 10.4 mph 16.1 mph 0.00 in Rain Light Rain
7:53 AM 71.1 °F - 69.1 °F 93% 29.98 in 9.0 mi WNW 4.6 mph - 0.02 in   Scattered Clouds
8:53 AM 71.1 °F - 69.1 °F 93% 29.95 in 9.0 mi ESE 4.6 mph - 0.00 in   Scattered Clouds
9:53 AM 73.0 °F - 70.0 °F 90% 29.95 in 10.0 mi ESE 4.6 mph - N/A   Clear
10:53 AM 75.9 °F - 70.0 °F 82% 29.95 in 10.0 mi SSE 5.8 mph - N/A   Clear
11:53 AM 82.0 °F 84.9 °F 68.0 °F 62% 29.95 in 10.0 mi Variable 4.6 mph - N/A   Clear
12:53 PM 86.0 °F 88.2 °F 66.0 °F 51% 29.93 in 10.0 mi SE 10.4 mph - N/A   Clear
1:53 PM 89.1 °F 92.1 °F 66.9 °F 48% 29.91 in 10.0 mi SSE 11.5 mph 19.6 mph N/A   Clear
2:53 PM 91.9 °F 95.9 °F 68.0 °F 45% 29.88 in 10.0 mi SE 13.8 mph 21.9 mph N/A   Clear
3:53 PM 93.9 °F 94.0 °F 61.0 °F 33% 29.85 in 10.0 mi South 18.4 mph 26.5 mph N/A   Clear
4:53 PM 93.0 °F 91.1 °F 55.0 °F 28% 29.84 in 10.0 mi SSW 11.5 mph 25.3 mph N/A   Clear
5:53 PM 93.9 °F 92.6 °F 57.0 °F 29% 29.83 in 10.0 mi South 13.8 mph 25.3 mph N/A   Clear
6:53 PM 93.0 °F 91.7 °F 57.0 °F 30% 29.82 in 10.0 mi South 11.5 mph 18.4 mph N/A   Clear
7:53 PM 89.1 °F 87.7 °F 57.0 °F 34% 29.82 in 10.0 mi South 6.9 mph - N/A   Clear
8:53 PM 87.1 °F 85.7 °F 55.9 °F 35% 29.84 in 10.0 mi South 12.7 mph 19.6 mph N/A   Clear
9:53 PM 82.9 °F 82.4 °F 57.0 °F 41% 29.87 in 10.0 mi South 9.2 mph - N/A   Clear
10:53 PM 81.0 °F 81.1 °F 57.9 °F 45% 29.89 in 10.0 mi South 9.2 mph - N/A   Clear
11:53 PM 80.1 °F 81.1 °F 61.0 °F 52% 29.89 in 10.0 mi South 11.5 mph - N/A   Clear